F5MAP-5 Weather Reports


time (UTC)temp
C
wind
direction
speed
KPH
gust
KPH
rain 1hr
cm
rain 24hr
cm
rain mn
cm
humidity
%
barometer
mb
20260502231215 16 166 0.0 4.8 0.00 0.00 0.00 64 1016.0
20260502230215 17 196 4.8 9.7 0.00 0.00 0.00 64 1016.0
20260502225215 17 188 3.2 6.4 0.00 0.00 0.00 64 1016.0
20260502224216 17 202 4.8 6.4 0.00 0.00 0.00 65 1015.9
20260502223215 17 188 3.2 6.4 0.00 0.00 0.00 65 1016.0
20260502222214 17 194 1.6 6.4 0.00 0.00 0.00 66 1015.9
20260502221215 17 202 4.8 9.7 0.00 0.00 0.00 66 1016.0
20260502220215 17 182 3.2 6.4 0.00 0.00 0.00 67 1016.1
20260502215215 17 194 1.6 4.8 0.00 0.00 0.00 66 1016.1
20260502214214 17 180 3.2 6.4 0.00 0.00 0.00 66 1016.1
20260502213215 17 196 3.2 8.0 0.00 0.00 0.00 66 1016.1
20260502212216 17 186 0.0 6.4 0.00 0.00 0.00 65 1016.1
20260502211214 17 161 3.2 8.0 0.00 0.00 0.00 64 1016.1
20260502210214 17 166 4.8 9.7 0.00 0.00 0.00 63 1016.0
20260502205214 18 144 4.8 6.4 0.00 0.00 0.00 62 1015.9
20260502204214 18 159 4.8 6.4 0.00 0.00 0.00 62 1015.9
20260502203214 18 134 1.6 3.2 0.00 0.00 0.00 62 1015.9
20260502202214 18 155 3.2 4.8 0.00 0.00 0.00 61 1015.9
20260502201214 19 221 1.6 3.2 0.00 0.00 0.00 60 1015.8
20260502200215 20 221 0.0 1.6 0.00 0.00 0.00 59 1015.6
20260502195214 20 221 0.0 3.2 0.00 0.00 0.00 57 1015.6
20260502194214 20 221 0.0 3.2 0.00 0.00 0.00 56 1015.6
20260502193214 21 236 0.0 1.6 0.00 0.00 0.00 54 1015.5
20260502192214 21 234 1.6 3.2 0.00 0.00 0.00 53 1015.5
20260502191214 22 245 1.6 4.8 0.00 0.00 0.00 51 1015.5
20260502190214 22 237 3.2 4.8 0.00 0.00 0.00 50 1015.3
20260502185214 23 269 3.2 4.8 0.00 0.00 0.00 49 1015.3
20260502184214 23 242 4.8 9.7 0.00 0.00 0.00 47 1015.3
20260502183214 23 271 4.8 9.7 0.00 0.00 0.00 47 1015.2
20260502182214 24 232 3.2 6.4 0.00 0.00 0.00 46 1015.2
20260502181214 24 223 1.6 6.4 0.00 0.00 0.00 47 1015.1
20260502180214 25 232 3.2 6.4 0.00 0.00 0.00 45 1015.1
20260502170214 26 252 8.0 12.9 0.00 0.00 0.00 40 1015.3
20260502164213 26 244 4.8 11.3 0.00 0.00 0.00 39 1015.4
20260502163213 26 257 4.8 11.3 0.00 0.00 0.00 39 1015.5
20260502162213 26 267 6.4 12.9 0.00 0.00 0.00 39 1015.6
20260502161213 26 209 4.8 8.0 0.00 0.00 0.00 37 1015.7
20260502160213 26 209 6.4 12.9 0.00 0.00 0.00 37 1015.9
20260502152212 27 206 8.0 16.1 0.00 0.00 0.00 34 1016.3
20260502151212 27 259 3.2 12.9 0.00 0.00 0.00 34 1016.3
20260502150213 27 220 6.4 14.5 0.00 0.00 0.00 34 1016.5
20260502130214 29 212 8.0 24.1 0.00 0.00 0.00 34 1018.4
20260502123214 30 196 8.0 16.1 0.00 0.00 0.00 31 1018.7
20260502122213 29 211 6.4 12.9 0.00 0.00 0.00 34 1018.9
20260502121213 29 193 4.8 16.1 0.00 0.00 0.00 34 1019.0
20260502120213 29 301 4.8 14.5 0.00 0.00 0.00 36 1019.2
20260502115213 29 163 8.0 16.1 0.00 0.00 0.00 34 1019.3
20260502114216 28 263 6.4 12.9 0.00 0.00 0.00 37 1019.4
20260502113213 28 273 11.3 16.1 0.00 0.00 0.00 36 1019.6
20260502112213 28 278 8.0 17.7 0.00 0.00 0.00 37 1019.8
20260502111213 27 251 8.0 17.7 0.00 0.00 0.00 39 1019.9
20260502110213 27 260 6.4 17.7 0.00 0.00 0.00 40 1020.1
20260502105212 27 142 6.4 12.9 0.00 0.00 0.00 40 1020.2
20260502104212 26 176 4.8 17.7 0.00 0.00 0.00 41 1020.4
20260502103212 26 165 6.4 16.1 0.00 0.00 0.00 42 1020.5
20260502102212 26 179 3.2 16.1 0.00 0.00 0.00 42 1020.6
20260502101212 25 155 8.0 12.9 0.00 0.00 0.00 43 1020.7
20260502100212 25 253 3.2 16.1 0.00 0.00 0.00 44 1020.9
20260502091213 22 215 9.7 17.7 0.00 0.00 0.00 49 1021.4
20260502090213 21 275 6.4 12.9 0.00 0.00 0.00 51 1021.6
20260502071213 15 201 4.8 9.7 0.00 0.00 0.00 62 1022.3
20260502070212 15 151 4.8 14.5 0.00 0.00 0.00 63 1022.4
20260502065212 14 173 8.0 11.3 0.00 0.00 0.00 64 1022.4
20260502064212 13 190 8.0 12.9 0.00 0.00 0.00 67 1022.4
20260502063212 12 164 4.8 9.7 0.00 0.00 0.00 70 1022.3
20260502062212 12 188 4.8 8.0 0.00 0.00 0.00 72 1022.4
20260502061211 11 163 1.6 6.4 0.00 0.00 0.00 74 1022.4
20260502060211 11 199 0.0 4.8 0.00 0.00 0.00 75 1022.5
20260502055212 10 181 0.0 0.0 0.00 0.00 0.00 76 1022.4
20260502054211 10 181 0.0 0.0 0.00 0.00 0.00 76 1022.4
20260502053211 10 181 0.0 0.0 0.00 0.00 0.00 77 1022.5
20260502052211 10 181 0.0 0.0 0.00 0.00 0.00 77 1022.4
20260502051211 9 181 0.0 0.0 0.00 0.00 0.00 76 1022.4
20260502050211 9 144 3.2 6.4 0.00 0.00 0.00 76 1022.2
20260502045214 9 171 3.2 6.4 0.00 0.00 0.00 77 1022.3
20260502044212 9 235 3.2 6.4 0.00 0.00 0.00 77 1022.2
20260502043212 9 189 1.6 8.0 0.00 0.00 0.00 77 1022.2
20260502042212 9 171 3.2 9.7 0.00 0.00 0.00 77 1022.1
20260502041212 9 211 4.8 9.7 0.00 0.00 0.00 78 1022.1
20260502040212 9 178 4.8 8.0 0.00 0.00 0.00 78 1022.1
20260502035212 9 184 4.8 9.7 0.00 0.00 0.00 78 1022.1
20260502034212 9 204 6.4 8.0 0.00 0.00 0.00 78 1022.1
20260502033212 9 180 4.8 8.0 0.00 0.00 0.00 78 1022.2
20260502032211 9 173 3.2 8.0 0.00 0.00 0.00 78 1022.2
20260502031211 9 184 4.8 9.7 0.00 0.00 0.00 77 1022.2
20260502030211 9 163 1.6 8.0 0.00 0.00 0.00 77 1022.2
20260502025213 9 246 3.2 9.7 0.00 0.00 0.00 76 1022.2
20260502024211 9 231 4.8 8.0 0.00 0.00 0.00 75 1022.1
20260502023211 10 230 1.6 6.4 0.00 0.00 0.00 75 1022.2
20260502022211 10 209 0.0 6.4 0.00 0.00 0.00 75 1022.2
20260502021211 10 196 1.6 6.4 0.00 0.00 0.00 75 1022.1
20260502020211 10 231 4.8 6.4 0.00 0.00 0.00 74 1022.2
20260502015213 10 215 3.2 6.4 0.00 0.00 0.00 74 1022.2
20260502014213 10 196 0.0 6.4 0.00 0.00 0.00 74 1022.2
20260502013212 10 225 4.8 9.7 0.00 0.00 0.00 73 1022.3
20260502012213 10 229 0.0 6.4 0.00 0.00 0.00 73 1022.3
20260502011212 10 247 3.2 4.8 0.00 0.00 0.00 73 1022.4
20260502010212 10 230 0.0 4.8 0.00 0.00 0.00 73 1022.4
20260502005212 10 269 0.0 0.0 0.00 0.00 0.00 73 1022.4
20260502004212 10 185 0.0 4.8 0.00 0.00 0.00 72 1022.5
20260502003212 10 254 1.6 8.0 0.00 0.00 0.00 71 1022.5
20260502002212 10 241 3.2 6.4 0.00 0.00 0.00 71 1022.5
20260502001212 10 216 4.8 6.4 0.00 0.00 0.00 70 1022.6
20260502000211 10 200 6.4 11.3 0.00 0.00 0.00 70 1022.7
20260501235211 10 208 3.2 6.4 0.00 0.00 0.00 69 1022.7
20260501234211 10 202 3.2 4.8 0.00 0.00 0.00 69 1022.7
20260501233211 11 212 0.0 0.0 0.00 0.00 0.00 68 1022.7
20260501232211 11 162 0.0 0.0 0.00 0.00 0.00 69 1022.6